User: anonymous   Login
Location: Barnston
(51.8500°N, 0.4000°E)
Time: 04:27:18
(UTC+00:00)
Language:

Cosmos 1484 Rocket - Orbit

View from above orbital plane
View from above orbital plane
View from above satellite
View from above satellite

Ground track
Ground track

The orbit data is extracted from the following two-line orbital elements,

1 14208U 83075B   24060.53852452  .00006946  00000-0  32579-3 0  9998
2 14208  97.5605  39.4334 0031077 319.9563  39.9380 15.19558880217225
Epoch (UTC): 29 February 2024 12:55:28
Eccentricity: 0.0031077
inclination: 97.5605°
perigee height: 486 km
apogee height: 528 km
right ascension of ascending node: 39.4334°
argument of perigee: 319.9563°
revolutions per day: 15.19558880
mean anomaly at epoch: 39.9380°
orbit number at epoch: 21722

The dashed part of the orbit path shows where the satellite is in the earth's shadow,  

DLR